Location: Caltech
(34.1382°N, 118.1253°W)
Time: 02:01:58
(UTC-07:00)

Lacrosse 5 - Visible Passes

Search period start: 04 May 2015 00:00
Search period end: 14 May 2015 00:00
Orbit: 714 x 722 km, 57.0° (Epoch: 01 May)

Date Brightness Start Highest point End Pass type
(mag) Time Alt. Az. Time Alt. Az. Time Alt. Az.
04 May 4.1 04:15:07 10° NNW 04:19:19 26° NE 04:23:34 10° E visible
04 May 1.8 20:21:19 10° SSW 20:26:18 62° SE 20:31:19 10° NE visible
04 May 4.4 22:05:46 10° W 22:09:38 21° NW 22:13:25 10° NNE visible
05 May 4.8 03:22:21 10° N 03:25:21 16° NNE 03:28:28 10° ENE visible
05 May 1.9 05:03:56 10° NW 05:09:00 87° NE 05:14:03 10° SE visible
05 May 3.5 21:11:06 10° WSW 21:15:47 36° NW 21:20:26 10° NNE visible
06 May 3.0 04:10:34 10° NNW 04:15:25 45° NE 04:20:15 10° ESE visible
06 May 2.3 20:17:04 10° SW 20:22:07 69° NW 20:27:11 10° NE visible
06 May 5.0 22:03:26 10° WNW 22:05:58 13° NNW 22:08:20 10° N visible
07 May 4.0 03:17:29 10° NNW 03:21:38 25° NE 03:25:49 10° E visible
07 May 2.1 04:59:56 10° NW 05:04:46 47° SW 05:09:35 10° SSE visible
07 May 4.5 21:08:00 10° W 21:11:55 22° NW 21:15:47 10° NNE visible
08 May 4.7 02:24:43 10° N 02:27:38 15° NNE 02:30:41 10° ENE visible
08 May 1.8 04:06:16 10° NW 04:11:19 85° NE 04:16:21 10° SE visible
08 May 3.6 20:13:22 10° WSW 20:18:05 37° NW 20:22:46 10° NNE visible
09 May 2.9 03:12:54 10° NNW 03:17:43 44° NE 03:22:32 10° ESE visible
09 May 2.8 04:56:24 10° WNW 05:00:27 24° WSW 05:04:23 10° S visible
09 May 4.9 21:05:37 10° WNW 21:08:15 14° NNW 21:10:43 10° N visible
10 May 3.9 02:19:49 10° NNW 02:23:55 25° NE 02:28:04 10° E visible
10 May 1.9 04:02:13 10° NW 04:07:06 49° SW 04:11:56 10° SSE visible
10 May 4.6 20:10:14 10° W 20:14:13 22° NW 20:18:08 10° NNE visible
11 May 4.6 01:27:05 10° N 01:29:55 15° NNE 01:32:53 10° ENE visible
11 May 2.6 03:08:34 10° NW 03:11:56 43° NNW 03:11:56 43° NNW visible
12 May 3.5 02:15:13 10° NNW 02:18:12 30° N 02:18:12 30° N visible
12 May 4.8 20:07:48 10° WNW 20:10:31 14° NNW 20:13:06 10° N visible
13 May 4.0 01:22:09 10° NNW 01:25:18 23° NNE 01:25:18 23° NNE visible
